Location: ????????
(55.5667°N, 37.5833°E)
Time: 17:21:02
(UTC+00:00)

Tsikada Rocket - Pass Details

Date: 14 April 2026
Orbit: 956 x 1009 km, 82.9° (Epoch: 16 May)

Event Time Altitude Azimuth Distance (km) Brightness Sun altitude
Rises 22:12:30 0° 346° (NNW) 3,731 8.1 -24.2°
Reaches altitude 10° 22:15:08 10° 341° (NNW) 2,771 7.1 -24.1°
Maximum altitude 22:21:07 46° 271° (W) 1,308 4.5 -23.9°
Enters shadow 22:22:25 40° 238° (WSW) 1,409 4.5 -23.8°
